www.pogodaiklimat.ru

ПОГОДА в Туре

АРХИВ ПОГОДЫ в Туре

Время (UTC), дата Ветер
(напр.,м/с)
 
Видим.   Явления Облачность Т
(С)
Тd
(С)
f
(%)
Тe
(С)
Тes
(С)
Комфортность P
(гПа)
Po
(гПа)
Тmin
(С)
Tmax
(С)
R
(мм)
S
(см)
18 9.01 штиль 0 н/о дымка 4/0
[Ci fib]
-42.5 -45.0 76 -43 -43 опасность
обморожения
1043.6 1014.5
21 9.01 штиль 0 н/о дымка ясно -42.8 -45.6 74 -43 -43 опасность
обморожения
1042.8 1013.7
00 10.01 штиль 0 н/о дымка ясно -43.9 -46.3 77 -44 -44 опасность
обморожения
1042.9 1013.7 -44.3 29
03 10.01 штиль 0 4000 м дымка 4/0
[Ci fib]
-43.6 -46.3 74 -44 -44 опасность
обморожения
1043.1 1013.9
06 10.01 штиль 0 2000 м дымка ясно -42.0 -45.0 72 -42 -42 опасность
обморожения
1042.7 1013.7
09 10.01 штиль 0 н/о дымка ясно -42.6 -45.6 72 -43 -43 опасность
обморожения
1042.7 1013.6
12 10.01 штиль 0 н/о дымка ясно -42.8 -45.6 74 -43 -43 опасность
обморожения
1042.9 1013.8 -42.0
15 10.01 штиль 0 н/о дымка ясно -43.7 -46.3 75 -44 -44 опасность
обморожения
1042.8 1013.6
18 10.01 штиль 0 н/о дымка ясно -44.0 -47.0 72 -44 -44 опасность
обморожения
1042.3 1013.1
21 10.01 ЮВ 1 н/о дымка 4/0
[Ci fib]
-44.6 -47.0 77 -50 -50 опасность
обморожения
1041.9 1012.5
00 11.01 штиль 0 н/о дымка ясно -45.0 -47.8 73 -45 -45 опасность
обморожения
1041.4 1012.2 -45.4 29
03 11.01 штиль 0 2000 м дымка 4/0
[Ac trans]
-44.3 -47.0 74 -44 -44 опасность
обморожения
1041.7 1012.5
06 11.01 Ю 1 4000 м дымка 8/0
[Ac trans]
-42.5 -45.0 76 -48 -48 опасность
обморожения
1041.3 1012.3
09 11.01 штиль 0 н/о 8/4
[Sc Ac trans]
-42.0 -45.0 72 -42 -42 опасность
обморожения
1041.7 1012.7
12 11.01 штиль 0 н/о дымка 8/4
[Sc Ac trans]
-41.1 -43.8 75 -41 -41 опасность
обморожения
1042.2 1013.4 -41.1
15 11.01 штиль 0 н/о дымка 6/0
[Ci fib]
-41.3 -43.8 77 -41 -41 опасность
обморожения
1042.0 1013.2
18 11.01 штиль 0 н/о дымка 4/0
[Ci fib]
-41.9 -44.4 76 -42 -42 опасность
обморожения
1042.4 1013.4
21 11.01 штиль 0 н/о дымка 3/0
[Ci fib]
-42.8 -45.6 74 -43 -43 опасность
обморожения
1042.8 1013.7
00 12.01 ЮВ 1 н/о ясно -41.7 -44.4 75 -47 -47 опасность
обморожения
1043.0 1014.0 -43.4 29
03 12.01 штиль 0 20 км 4/0
[Ci fib]
-42.7 -45.6 73 -43 -43 опасность
обморожения
1043.0 1013.9
06 12.01 штиль 0 20 км 1/0
[Ci fib]
-41.4 -44.4 72 -41 -41 опасность
обморожения
1042.7 1013.9
09 12.01 штиль 0 н/о ясно -42.8 -45.6 74 -43 -43 опасность
обморожения
1043.2 1014.1
12 12.01 штиль 0 н/о дымка ясно -42.1 -45.0 73 -42 -42 опасность
обморожения
1043.7 1014.7 -41.4
15 12.01 штиль 0 н/о дымка ясно -43.0 -45.6 75 -43 -43 опасность
обморожения
1044.6 1015.5
18 12.01 штиль 0 н/о дымка ясно -43.2 -45.6 77 -43 -43 опасность
обморожения
1044.3 1015.2
21 12.01 штиль 0 н/о дымка ясно -43.4 -46.3 73 -43 -43 опасность
обморожения
1044.9 1015.8
00 13.01 штиль 0 н/о дымка ясно -43.0 -45.6 75 -43 -43 опасность
обморожения
1044.7 1015.6 -44.6 29
03 13.01 В 1 10 км дымка 10/0
[Ac trans Ci fib]
-42.0 -45.0 72 -47 -47 опасность
обморожения
1044.4 1015.4
06 13.01 ЮВ 1 20 км 10/0
[Ac As]
-40.1 -42.8 75 -45 -45 опасность
обморожения
1043.7 1015.0
09 13.01 штиль 0 н/о 10/0
[As op Ci fib]
-40.1 -42.8 75 -40 -40 опасность
обморожения
1043.5 1014.8
12 13.01 штиль 0 н/о 10/0
[Cs]
-39.1 -41.8 75 -39 -39 опасность
обморожения
1043.8 1015.2 -39.1
15 13.01 ЮВ 1 н/о 10/0
[Cs]
-37.6 -40.5 74 -43 -43 опасность
обморожения
1043.2 1014.7
18 13.01 штиль 0 н/о 10/0
[Cs]
-36.4 -39.4 74 -36 -36 опасность
обморожения
1043.2 1015.0
21 13.01 штиль 0 н/о 3/0
[Ci fib]
-37.0 -39.8 75 -37 -37 опасность
обморожения
1043.4 1015.0
00 14.01 штиль 0 н/о 9/0
[Ac trans Cs]
-36.1 -39.0 74 -36 -36 опасность
обморожения
1043.5 1015.3 -39.3 29
03 14.01 штиль 0 20 км 10/0
[Ac As]
-34.8 -37.7 75 -35 -35 опасность
обморожения
1044.4 1016.3
06 14.01 штиль 0 20 км 10/0
[Ac trans Cs]
-33.5 -36.6 73 -34 -33 опасность
обморожения
1043.9 1015.9
09 14.01 штиль 0 н/о 10/0
[Ac As]
-31.9 -35.0 74 -32 -32 опасность
обморожения
1043.5 1015.7
12 14.01 штиль 0 н/о 10/0
[Ac As]
-30.9 -33.9 75 -31 -31 опасность
обморожения
1043.1 1015.5 -30.9
15 14.01 штиль 0 н/о 10/0
[Ac As Cs]
-30.3 -32.8 79 -30 -30 1042.8 1015.3
18 14.01 штиль 0 н/о 10/0
[Cs]
-30.5 -33.0 79 -31 -31 опасность
обморожения
1042.4 1014.8
21 14.01 штиль 0 н/о 10/0
[Cs]
-30.2 -32.6 79 -30 -30 1042.1 1014.6
00 15.01 ЮВ 1 н/о 10/0
[Cs]
-30.6 -33.0 79 -35 -35 опасность
обморожения
1041.6 1014.0 -30.9 29
03 15.01 штиль 0 20 км 10/0
[Ac As Cs]
-30.9 -33.2 80 -31 -31 опасность
обморожения
1041.7 1014.1 -31.6
06 15.01 штиль 0 20 км 8/0
[Ac trans Ci sp]
-30.5 -33.0 79 -31 -30 опасность
обморожения
1041.7 1014.1
09 15.01 штиль 0 н/о 6/0
[Ci sp]
-31.6 -33.9 80 -32 -32 опасность
обморожения
1042.9 1015.1
12 15.01 В 1 н/о 4/0
[Ci fib]
-34.5 -36.8 79 -39 -39 опасность
обморожения
1044.0 1015.9 -30.0
15 15.01 штиль 0 н/о 6/0
[Ac trans Ci fib]
-35.1 -37.4 79 -35 -35 опасность
обморожения
1044.5 1016.4
18 15.01 В 1 н/о 8/0
[Ac trans Ci fib]
-36.3 -39.0 76 -41 -41 опасность
обморожения
1044.4 1016.2
21 15.01 СЗ 1 н/о 6/0
[Ci fib]
-37.1 -40.1 73 -42 -42 опасность
обморожения
1045.0 1016.6
00 16.01 штиль 0 н/о 6/0
[Ci fib]
-38.1 -40.9 75 -38 -38 опасность
обморожения
1045.3 1016.8 -38.1 29
03 16.01 С 1 2000 м дымка 6/0
[Ci fib]
-39.5 -42.3 74 -45 -45 опасность
обморожения
1046.5 1017.6 -39.9
06 16.01 СЗ 1 10 км дымка 8/0
[Ac trans Ci sp]
-37.7 -40.5 75 -43 -43 опасность
обморожения
1045.5 1017.0
09 16.01 штиль 0 н/о дымка 8/0
[Ac trans Ci sp]
-38.5 -41.4 74 -39 -39 опасность
обморожения
1045.6 1017.0
12 16.01 штиль 0 н/о дымка 6/0
[Ac trans Ci fib]
-40.7 -43.3 76 -41 -41 опасность
обморожения
1046.5 1017.5 -37.7
15 16.01 штиль 0 н/о дымка 6/0
[Ci fib]
-40.9 -43.8 73 -41 -41 опасность
обморожения
1045.7 1046.0

 

Местоположение метеостанции Тура (Эвенкия, Россия): широта 64.33 долгота 100.40 высота над уровнем моря 624 м.

В архиве по умолчанию представлена погода в Туре за последнюю неделю. Архивные данные за месяц целиком и за предыдущие месяцы, начиная с января 2011 года, Вы можете получить, выбрав интересующий диапазон дат из раскрывающегося списка и нажав кнопку "Ввод!".

Внимание! Время в таблицах - всемирное. Для получения местного времени необходимо прибавить поправку, которая в Туре равна 7 ч.

Ветер - указаны скорость ветра в м/с - средняя за 10 мин, порывы в срок и между сроками (в фигурных скобках) и направление, откуда дует ветер: С - северный, СВ - северо-восточный, В - восточный, ЮВ - юго-восточный, Ю - южный, ЮЗ - юго-западный, З - западный, СЗ - северо-западный.
Видимость - горизонтальная дальность видимости в метрах или километрах. При видимости от 1 до 10 км при отсутствии осадков обычно наблюдается дымка, при ухудшении видимости до 1 км и менее - туман. В сухую погоду видимость может ухудшаться дымом, пылью или мглою.
Явления - указаны атмосферные явления, наблюдавшиеся в срок или в последний час перед сроком; фигурными скобками обозначены явления, наблюдавшиеся между сроками (за 1-3 часа до срока); квадратными скобками обозначены град или гололедные отложения с указанием их диаметра в мм.
Облачность - указаны через наклонную черту общая и нижняя облачность в баллах и высота нижней границы облаков в метрах; квадратными скобками обозначены формы облаков: Ci - перистые, Cs - перисто-слоистые, Cc - перисто-кучевые, Ac - высококучевые, As - высокослоистые, Sc - слоисто-кучевые, Ns - слоисто-дождевые, Cu - кучевые, Cb - кучево-дождевые. Подробнее классификацию облаков см. в Атласе облаков (PDF).
T - Температура воздуха - температура, измеренная на высоте 2 м над землей.
Td - Температура точки росы - температура, при понижении до которой содержащийся в воздухе водяной пар достигнет насыщения.
f - Относительная влажность воздуха - влажноcть воздуха, измеренная на высоте 2 м над землей.
Te - Эффективная температура - температура, которую ощущает одетый по сезону человек в тени. Характеристика душности погоды. При расчете учитывается влияние влажности воздуха и скорости ветра на теплоощущения человека.
Tes - Эффективная температура на солнце - температура, которую ощущает человек, с поправкой на солнечный нагрев. Характеристика знойности погоды. Зависит от высоты солнца над горизонтом, облачности и скорости ветра. Ночью, в пасмурную погоду, а также при ветре 12 м/с и более поправка равна нулю.
P - Атмосферное давление - приведенное к уровню моря атмосферное давление.
Po - Атмосферное давление - измеренное на уровне метеостанции атмосферное давление.
Tmin - Минимальная температура - минимум температуры воздуха на высоте 2 м над землей.
Tmax - Максимальная температура - максимум температуры воздуха на высоте 2 м над землей.
R - Количество осадков - Количество выпавших осадков, мм. При наведении курсора мыши на число - период времени, за который выпало указанное количество осадков.
S - Снежный покров - Высота снежного покрова, см. При наведении курсора мыши на число - состояние снежного покрова и степень покрытия местности в баллах.